This is the latest recevied weather packets stored in our database for station/object W4GAP. If no packets are shown the sender has not sent any weather packets the latest 10 day(s).
| Time | Temp. | Humidity | Pressure | Rain* | Wind** | Luminosity | Snow |
|---|---|---|---|---|---|---|---|
| 1778003552 | 25.56° C | 42% | 1012.7 hPa | 0 mm | - | 196 W/m² | - |
| 1778003249 | 25.56° C | 41% | 1012.7 hPa | 0 mm | - | 184 W/m² | - |
| 1778002946 | 25.56° C | 42% | 1013 hPa | 0 mm | - | 117 W/m² | - |
| 1778002642 | 25° C | 43% | 1013.1 hPa | 0 mm | - | 188 W/m² | - |
| 1778002339 | 25.56° C | 42% | 1012.9 hPa | 0 mm | - | 73 W/m² | - |
| 1778002036 | 26.67° C | 40% | 1013.1 hPa | 0 mm | - | 78 W/m² | - |
| 1778001733 | 26.11° C | 42% | 1012.9 hPa | 0 mm | - | 121 W/m² | - |
| 1778001433 | 26.11° C | 39% | 1013.1 hPa | 0 mm | - | 205 W/m² | - |
| 1778001130 | 26.11° C | 40% | 1013.1 hPa | 0 mm | - | 751 W/m² | - |
| 1778000827 | 26.11° C | 40% | 1013 hPa | 0 mm | - | 747 W/m² | - |
| 1778000523 | 25.56° C | 40% | 1013.1 hPa | 0 mm | - | 721 W/m² | - |
| 1778000218 | 25.56° C | 41% | 1012.9 hPa | 0 mm | - | 747 W/m² | - |
| 1777999914 | 26.11° C | 40% | 1012.9 hPa | 0 mm | - | 760 W/m² | - |
| 1777999610 | 25° C | 41% | 1012.9 hPa | 0 mm | - | 773 W/m² | - |
| 1777999308 | 25° C | 40% | 1012.8 hPa | 0 mm | - | 776 W/m² | - |
| 1777999006 | 25.56° C | 41% | 1013.1 hPa | 0 mm | - | 788 W/m² | - |
| 1777998704 | 25.56° C | 41% | 1012.9 hPa | 0 mm | - | 781 W/m² | - |
| 1777998401 | 25.56° C | 45% | 1013.2 hPa | 0 mm | - | 776 W/m² | - |
| 1777998098 | 25.56° C | 42% | 1013 hPa | 0 mm | - | 749 W/m² | - |
| 1777997795 | 25.56° C | 43% | 1013.2 hPa | 0 mm | - | 499 W/m² | - |
| 1777997492 | 25° C | 43% | 1013.3 hPa | 0 mm | - | 776 W/m² | - |
| 1777997190 | 25° C | 44% | 1013.4 hPa | 0 mm | - | 800 W/m² | - |
| 1777996887 | 24.44° C | 43% | 1013.3 hPa | 0 mm | - | 769 W/m² | - |
| 1777996583 | 25° C | 42% | 1013.7 hPa | 0 mm | - | 580 W/m² | - |
| 1777996280 | 23.89° C | 44% | 1013.4 hPa | 0 mm | - | 202 W/m² | - |
* Rain latest hour (hover to see other rain measurements)
** Current wind speed in m/s (hover to see current wind gust speed)